Tracking 30970 objects as of 3-Jul-2025
HD Live streaming from Space Station
objects crossing your sky now

ANDESITE

Track ANDESITE now!
10-day predictions


NORAD ID: 45726
Int'l Code: 2020-037D
Perigee: 559.8 km
Apogee: 570.0 km
Inclination: 97.8 °
Period: 95.8 minutes
Semi major axis: 6935 km
RCS: Unknown
Launch date: June 13, 2020
Source: United States (US)
Launch site: Rocket Lab Launch Complex (RLLC)
Your satellite tracking list
Your tracking list is empty




NASA's NSSDC Master Catalog

Two Line Element Set (TLE):
1 45726U 20037D   25183.77256813  .00002119  00000-0  16222-3 0  9993
2 45726  97.7915   9.0852 0007331 270.1190  89.9194 15.02973682273131
Source of the keplerian elements: AFSPC